Date String (YYYY-MM-DD hh:mm:ss) UTC,Instrument flags,Ambient pressure (hPa),Sample flow (lpm),Bypass flow (lpm),Sample temperature (°C),Ambient temperature (°C),ASC tube jacket temperature (°C),LED temperature (°C),Box temperature (°C),Sample RH (%),Span deviation,Mass concentration (μg/m³),Mass concentration (μg/m³),Mass concentration (μg/m³)
DateTimeUTC,F1_M11,P_M11,Q1_M11,Q2_M11,T1_M11,T2_M11,T3_M11,T4_M11,T5_M11,U1_M11,ZSPAN_M11,X0_M11,X2_M11,X1_M11
2021-10-30 02:00:00,,0825.1,4.99,0.00,30.0,28.9,00.0,39.0,31.6,07.6,0000.0,0003.45,0000.74,0000.55
2021-10-30 02:01:00,,0825.1,5.02,0.00,30.0,28.9,00.0,39.0,31.7,07.6,0000.0,0003.56,0000.78,0000.57
2021-10-30 02:02:00,,0825.1,5.00,0.00,30.0,28.9,00.0,39.0,31.7,07.5,0000.0,0003.83,0000.79,0000.58
2021-10-30 02:03:00,,0825.1,4.99,0.00,30.0,28.8,00.0,39.0,31.7,07.5,0000.0,0003.82,0000.77,0000.57
2021-10-30 02:04:00,,0825.1,5.01,0.00,30.0,28.9,00.0,39.0,31.6,07.6,0000.0,0003.22,0000.73,0000.57
2021-10-30 02:05:00,,0825.1,5.00,0.00,30.0,28.9,00.0,39.0,31.7,07.5,0000.0,0002.71,0000.72,0000.56
2021-10-30 02:06:00,,0825.0,5.00,0.00,30.0,28.9,00.0,39.0,31.7,07.5,0000.0,0002.77,0000.75,0000.56
2021-10-30 02:07:00,,0825.1,5.00,0.00,30.0,28.9,00.0,39.0,31.7,07.6,0000.0,0002.77,0000.74,0000.55
2021-10-30 02:08:00,,0825.0,4.99,0.00,30.0,28.9,00.0,39.0,31.6,07.6,0000.0,0002.63,0000.69,0000.52
2021-10-30 02:09:00,,0825.0,4.99,0.00,30.0,28.9,00.0,39.0,31.7,07.7,0000.0,0002.52,0000.63,0000.48
2021-10-30 02:10:00,,0825.0,5.01,0.00,30.0,28.9,00.0,39.0,31.7,07.6,0000.0,0001.79,0000.60,0000.47
2021-10-30 02:11:00,,0825.0,5.00,0.00,30.0,29.0,00.0,39.0,31.7,07.6,0000.0,0001.33,0000.63,0000.46
2021-10-30 02:12:00,,0825.0,5.00,0.00,30.0,28.9,00.0,39.0,31.6,07.6,0000.0,0001.88,0000.63,0000.45
2021-10-30 02:13:00,,0825.0,5.01,0.00,30.0,28.9,00.0,39.0,31.7,07.6,0000.0,0001.90,0000.60,0000.45
2021-10-30 02:14:00,,0825.0,5.00,0.00,30.0,28.9,00.0,39.0,31.7,07.7,0000.0,0001.86,0000.60,0000.44
2021-10-30 02:15:00,,0825.0,5.00,0.00,30.0,28.9,00.0,39.0,31.6,07.7,0000.0,0001.92,0000.61,0000.44
2021-10-30 02:16:00,,0824.9,5.00,0.00,30.0,28.9,00.0,39.0,31.7,07.6,0000.0,0002.00,0000.64,0000.43
2021-10-30 02:17:00,,0825.0,5.00,0.00,30.0,28.9,00.0,39.0,31.7,07.6,0000.0,0002.07,0000.64,0000.43
2021-10-30 02:18:00,,0824.9,5.03,0.00,30.0,28.9,00.0,39.0,31.7,07.6,0000.0,0002.26,0000.71,0000.44
2021-10-30 02:19:00,,0824.9,4.99,0.00,30.0,28.9,00.0,39.0,31.7,07.6,0000.0,0002.52,0000.78,0000.46
2021-10-30 02:20:00,,0824.9,4.99,0.00,30.0,28.9,00.0,39.0,31.7,07.6,0000.0,0002.61,0000.80,0000.47
2021-10-30 02:21:00,,0824.9,5.01,0.00,30.0,28.9,00.0,39.0,31.7,07.6,0000.0,0002.67,0000.84,0000.48
2021-10-30 02:22:00,,0824.9,5.01,0.00,30.0,28.9,00.0,39.0,31.6,07.6,0000.0,0002.60,0000.81,0000.48
2021-10-30 02:23:00,,0824.9,5.01,0.00,30.0,28.9,00.0,39.0,31.6,07.6,0000.0,0002.05,0000.81,0000.49
2021-10-30 02:24:00,,0825.0,5.00,0.00,30.0,28.9,00.0,39.0,31.6,07.6,0000.0,0001.90,0000.87,0000.50
2021-10-30 02:25:00,,0825.0,4.99,0.00,30.0,28.9,00.0,39.0,31.6,07.6,0000.0,0002.17,0000.93,0000.52
2021-10-30 02:26:00,,0824.9,5.00,0.00,30.0,28.9,00.0,39.0,31.7,07.7,0000.0,0002.94,0000.95,0000.53
2021-10-30 02:27:00,,0824.9,5.00,0.00,30.0,28.9,00.0,39.0,31.7,07.7,0000.0,0002.91,0000.93,0000.53
2021-10-30 02:28:00,,0824.9,5.00,0.00,30.0,29.0,00.0,39.1,31.7,07.7,0000.0,0002.80,0000.90,0000.52
2021-10-30 02:29:00,,0824.9,5.00,0.00,30.0,29.0,00.0,39.1,31.7,07.7,0000.0,0002.61,0000.83,0000.51
2021-10-30 02:30:00,,0824.9,5.01,0.00,30.0,29.0,00.0,39.1,31.7,07.8,0000.0,0003.78,0000.79,0000.49
2021-10-30 02:31:00,,0824.9,5.00,0.00,30.0,29.0,00.0,39.1,31.7,07.9,0000.0,0004.89,0000.76,0000.48
2021-10-30 02:32:00,,0824.9,4.99,0.00,30.0,29.0,00.0,39.1,31.7,07.9,0000.0,0004.81,0000.71,0000.46
2021-10-30 02:33:00,,0824.9,5.00,0.00,30.0,28.9,00.0,39.1,31.7,08.0,0000.0,0004.73,0000.68,0000.44
2021-10-30 02:34:00,,0824.9,5.01,0.00,29.9,28.9,00.0,39.1,31.6,08.0,0000.0,0004.59,0000.65,0000.43
2021-10-30 02:35:00,,0824.9,5.00,0.00,29.9,28.9,00.0,39.1,31.6,08.0,0000.0,0004.43,0000.58,0000.40
2021-10-30 02:36:00,,0824.9,4.99,0.00,29.9,28.9,00.0,39.0,31.6,08.0,0000.0,0004.38,0000.54,0000.37
2021-10-30 02:37:00,,0824.9,5.00,0.00,29.9,28.9,00.0,39.0,31.6,08.1,0000.0,0003.43,0000.50,0000.35
2021-10-30 02:38:00,,0824.9,5.00,0.00,29.9,28.9,00.0,39.0,31.6,08.0,0000.0,0003.29,0000.45,0000.34
2021-10-30 02:39:00,,0824.9,5.00,0.00,29.9,28.9,00.0,39.0,31.6,08.0,0000.0,0003.28,0000.44,0000.34
2021-10-30 02:40:00,,0824.9,5.01,0.00,29.9,28.9,00.0,39.0,31.6,08.1,0000.0,0003.26,0000.43,0000.33
2021-10-30 02:41:00,,0824.9,4.99,0.00,29.9,28.9,00.0,39.0,31.6,08.0,0000.0,0002.63,0000.41,0000.32
2021-10-30 02:42:00,,0824.9,5.00,0.00,29.9,28.9,00.0,39.0,31.6,08.1,0000.0,0001.16,0000.41,0000.32
2021-10-30 02:43:00,,0824.9,5.00,0.00,29.9,28.9,00.0,39.0,31.6,08.1,0000.0,0002.46,0000.42,0000.32
2021-10-30 02:44:00,,0824.9,5.01,0.00,29.9,28.9,00.0,39.0,31.6,08.1,0000.0,0002.48,0000.42,0000.32
2021-10-30 02:45:00,,0824.9,5.00,0.00,29.9,28.9,00.0,39.0,31.5,08.1,0000.0,0002.71,0000.43,0000.32
2021-10-30 02:46:00,,0824.8,4.99,0.00,29.9,28.9,00.0,39.0,31.5,08.1,0000.0,0002.77,0000.46,0000.32
2021-10-30 02:47:00,,0824.8,4.99,0.00,29.9,28.9,00.0,39.0,31.5,08.1,0000.0,0002.73,0000.45,0000.33
2021-10-30 02:48:00,,0824.8,5.01,0.00,29.9,28.9,00.0,39.0,31.5,08.1,0000.0,0002.86,0000.48,0000.34
2021-10-30 02:49:00,,0824.8,5.01,0.00,29.9,28.9,00.0,39.0,31.6,08.1,0000.0,0002.93,0000.50,0000.35
2021-10-30 02:50:00,,0824.7,5.00,0.00,29.9,28.9,00.0,39.0,31.6,08.2,0000.0,0002.96,0000.50,0000.34
2021-10-30 02:51:00,,0824.7,5.01,0.00,29.8,28.8,00.0,39.0,31.5,08.1,0000.0,0002.93,0000.49,0000.33
2021-10-30 02:52:00,,0824.7,5.00,0.00,29.8,28.8,00.0,39.0,31.5,08.1,0000.0,0002.92,0000.48,0000.33
2021-10-30 02:53:00,,0824.7,5.00,0.00,29.8,28.8,00.0,39.0,31.5,08.1,0000.0,0002.23,0000.47,0000.32
2021-10-30 02:54:00,,0824.7,5.00,0.00,29.8,28.8,00.0,39.0,31.5,08.2,0000.0,0001.07,0000.46,0000.32
2021-10-30 02:55:00,,0824.7,5.01,0.00,29.8,28.8,00.0,39.0,31.5,08.3,0000.0,0001.01,0000.44,0000.32
2021-10-30 02:56:00,,0824.7,4.99,0.00,29.8,28.8,00.0,38.9,31.5,08.3,0000.0,0000.73,0000.41,0000.31
2021-10-30 02:57:00,,0824.8,5.02,0.00,29.8,28.9,00.0,38.9,31.5,08.3,0000.0,0000.67,0000.38,0000.31
2021-10-30 02:58:00,,0824.6,4.98,0.00,29.8,28.9,00.0,38.9,31.5,08.3,0000.0,0001.19,0000.38,0000.31
2021-10-30 02:59:00,,0824.7,5.01,0.00,29.8,28.9,00.0,38.9,31.5,08.3,0000.0,0001.24,0000.39,0000.31
